Weather History for Waco, TX

Change the Weather History Date:

Sunday, August 18, 2013

  Actual Average Record
Temperature  
Mean Temperature 78 °F 86 °F  
Max Temperature 93 °F 97 °F 109 °F (1909)
Min Temperature 62 °F 74 °F 61 °F (1992)
Degree Days  
Heating Degree Days 0 0  
Month to date heating degree days 0 0  
Since 1 June heating degree days 0 0  
Since 1 July heating degree days 0 0  
Cooling Degree Days 13 20  
Month to date cooling degree days 380 377  
Year to date cooling degree days 1947 1943  
Since 1 June cooling degree days 1530 1491  
Growing Degree Days 28 (Base 50)    
Moisture  
Dew Point 59 °F    
Average Humidity 57    
Maximum Humidity 81    
Minimum Humidity 32    
Precipitation  
Precipitation 0.00 in 0.07 in 3.48 in (2008)
Month to date precipitation 0.02 1.08  
Year to date precipitation 21.23 21.19  
Sea Level Pressure  
Sea Level Pressure 30.01 in    
Wind  
Wind Speed 4 mph (East)    
Max Wind Speed 13 mph    
Max Gust Speed 17 mph    
Visibility 10 miles    
Events      
T = Trace of Precipitation, MM = Missing Value Source: NWS Daily Summary

Daily Weather History Graph

Daily Weather History Graph

Search for Another Location

Airport:

Trip Planner

Search our weather history database for the weather conditions in past years. The results will help you decide how hot, cold, wet, or windy it might be!

Date:

Astronomy

Aug. 18, 2013 Rise Set
Actual Time 6:56 AM CDT 8:08 PM CDT
Civil Twilight 6:30 AM CDT 8:34 PM CDT
Nautical Twilight 6:00 AM CDT 9:04 PM CDT
Astronomical Twilight 5:28 AM CDT 9:35 PM CDT
Moon 6:12 PM CDT (8/18) 4:12 AM CDT (8/18)
Length of Visible Light 14h 03m
Length of Day
13h 12m
Waxing Gibbous, 92% of the Moon is Illuminated
Aug 18
Waxing Gibbous
Aug 20
Full
Aug 28
Last Quarter
Sep 5
New
Sep 12
First Quarter

Hourly Weather History & Observations

Time (CDT) Temp. Heat Index Dew Point Humidity Pressure Visibility Wind Dir Wind Speed Gust Speed Precip Events Conditions
12:51 AM 72.0 °F - 57.9 °F 61% 30.01 in 10.0 mi ENE 3.5 mph - N/A   Clear
1:51 AM 72.0 °F - 57.0 °F 59% 30.01 in 10.0 mi ENE 4.6 mph - N/A   Clear
2:51 AM 70.0 °F - 57.0 °F 63% 30.00 in 10.0 mi Calm Calm - N/A   Clear
3:51 AM 66.9 °F - 57.0 °F 70% 29.99 in 10.0 mi Calm Calm - N/A   Clear
4:51 AM 64.0 °F - 57.9 °F 80% 30.00 in 10.0 mi Calm Calm - N/A   Clear
5:51 AM 64.9 °F - 57.9 °F 78% 30.00 in 10.0 mi Calm Calm - N/A   Clear
6:51 AM 64.0 °F - 57.0 °F 78% 30.01 in 10.0 mi Calm Calm - N/A   Clear
7:51 AM 66.9 °F - 60.1 °F 79% 30.03 in 10.0 mi Calm Calm - N/A   Clear
8:51 AM 73.0 °F - 62.1 °F 68% 30.06 in 10.0 mi ESE 3.5 mph - N/A   Clear
9:51 AM 79.0 °F - 64.0 °F 60% 30.07 in 10.0 mi SE 4.6 mph - N/A   Clear
10:51 AM 84.0 °F 84.9 °F 63.0 °F 49% 30.07 in 10.0 mi SE 4.6 mph - N/A   Clear
11:51 AM 87.1 °F 86.7 °F 60.1 °F 40% 30.06 in 10.0 mi Variable 6.9 mph - N/A   Clear
12:51 PM 89.1 °F 88.2 °F 59.0 °F 36% 30.05 in 10.0 mi ESE 5.8 mph - N/A   Clear
1:51 PM 91.0 °F 90.2 °F 59.0 °F 34% 30.04 in 10.0 mi East 9.2 mph - N/A   Scattered Clouds
2:51 PM 91.9 °F 90.8 °F 57.9 °F 32% 30.02 in 10.0 mi North 8.1 mph - N/A   Clear
3:51 PM 93.0 °F 92.3 °F 59.0 °F 32% 30.00 in 10.0 mi NE 8.1 mph - N/A   Partly Cloudy
4:51 PM 91.9 °F 90.8 °F 57.9 °F 32% 29.99 in 10.0 mi East 10.4 mph - N/A   Clear
5:51 PM 91.9 °F 90.8 °F 57.9 °F 32% 29.97 in 10.0 mi ENE 8.1 mph - N/A   Clear
6:51 PM 90.0 °F 88.8 °F 57.9 °F 34% 29.97 in 10.0 mi ESE 4.6 mph - N/A   Clear
7:51 PM 87.1 °F 85.9 °F 57.0 °F 36% 29.97 in 10.0 mi ENE 3.5 mph - N/A   Clear
8:51 PM 84.0 °F 83.3 °F 57.0 °F 40% 29.97 in 10.0 mi East 5.8 mph - N/A   Clear
9:51 PM 75.9 °F - 57.9 °F 54% 29.99 in 10.0 mi ENE 3.5 mph - N/A   Clear
10:51 PM 75.0 °F - 57.0 °F 53% 29.99 in 10.0 mi Calm Calm - N/A   Clear
11:51 PM 73.0 °F - 57.9 °F 59% 29.99 in 10.0 mi Calm Calm - N/A   Clear